Voltar ao catálogo

CZ-4 DEB

AtivoSSO
NORAD 32473·DEBRIS·🇨🇳 China

Lançado Sep 19, 2007 de Taiyuan Satellite Launch Center

Loading…

Próximas Passagens (próximas 24 horas)

TLE

AtualizadoSource: Space-Track

Época: Sep 13, 2026, 23:20 UTC

1 32473U 07042C   26256.97247008  .00002385  00000-0  44564-3 0  9994
2 32473  97.9584 262.1025 0085343 313.2533  46.1568 14.63512364991705

Acompanhe CZ-4 DEB em tempo real com AllMySat

Download on the App Store